Flag for Germany Weather past 2 weeks in Lippstadt, North Rhine-Westphalia, Germany

50 °F

Drizzle. Fog.

Feels Like: 48 °F
Forecast: 49 / 59 °F
Wind: 6 mph from West

Location: Paderborn / Lippstadt

Current Time: Oct 9, 2015 at 1:48:25 AM

Latest Report: Oct 9, 2015 at 12:50 AM

Visibility: 1 mi

Pressure: 30.15 "Hg

Humidity: 100%

Dew point: 50 °F

Location of LippstadtLocation

Historic Weather in Lippstadt — Graph


Lippstadt temperature yesterday

Maximum temperature yesterday: 54 °F (at 12:50 AM)
Minimum temperature yesterday: 50 °F (at 9:20 PM)
Average temperature yesterday: 53 °F

Past Weeks' High & Low Weather Summary

High66 °F (Oct 6, 2:50 PM)100% (Sep 24, 12:50 AM)30.66 "Hg (Sep 24, 12:50 AM)
Low34 °F (Oct 2, 6:20 AM)39% (Oct 2, 5:20 PM)29.65 "Hg (Oct 6, 5:20 AM)
Average52 °F79%30.20 "Hg
* Reported Sep 24 12:50 AM — Oct 9 12:50 AM, Lippstadt, Weather by CustomWeather, © 2015

Note: Actual official high and low records may vary slightly from our data, if they occured in-between our weather recording intervals... More about our weather records


Lippstadt weather history for previous 24 hours

Time TempWeatherWind HumidityBarometerVisibility
12:50 AM
Fri, Oct 9
50 °FDrizzle. Fog.6 mph100%30.15 "Hg1 mi
12:20 AM50 °FDrizzle. Fog.5 mph100%30.18 "Hg1 mi
11:20 PM
Thu, Oct 8
50 °FFog.6 mph100%30.18 "Hg2 mi
10:50 PM50 °FFog.6 mph100%30.15 "Hg2 mi
10:20 PM50 °FFog.6 mph100%30.15 "Hg2 mi
9:50 PM50 °FFog.5 mph100%30.15 "Hg2 mi
9:20 PM50 °FFog.6 mph100%30.15 "Hg2 mi
8:50 PM52 °FFog.7 mph94%30.15 "Hg1 mi
8:20 PM52 °FFog.6 mph94%30.15 "Hg2 mi
7:50 PM52 °FDrizzle. Fog.6 mph94%30.15 "Hg1 mi
7:20 PM52 °FDrizzle. Fog.7 mph94%30.15 "Hg1 mi
6:50 PM52 °FFog.10 mph94%30.12 "Hg1 mi
6:20 PM52 °FFog.5 mph100%30.12 "Hg2 mi
5:50 PM54 °FFog.6 mph100%30.12 "Hg3 mi
5:20 PM54 °FPartly sunny.5 mph100%30.12 "Hg4 mi
4:50 PM54 °FPartly sunny.3 mph100%30.12 "Hg4 mi
4:20 PM54 °FPartly sunny.3 mph100%30.12 "Hg4 mi
3:50 PM54 °FPartly sunny.5 mph100%30.12 "Hg4 mi
3:20 PM54 °FBroken clouds.6 mph100%30.12 "Hg4 mi
2:50 PM54 °FFog.6 mph100%30.12 "Hg2 mi
2:20 PM54 °FFog.5 mph100%30.12 "Hg2 mi
1:50 PM54 °FFog.6 mph94%30.09 "Hg2 mi
1:20 PM54 °FFog.6 mph94%30.09 "Hg3 mi
12:50 PM54 °FFog.6 mph94%30.09 "Hg3 mi
12:20 PM54 °FFog.5 mph94%30.09 "Hg3 mi
11:50 AM54 °FBroken clouds.7 mph88%30.09 "Hg5 mi
11:20 AM54 °FPartly sunny.7 mph88%30.09 "Hg5 mi
10:50 AM54 °FPartly sunny.6 mph88%30.09 "Hg5 mi
10:20 AM54 °FPartly sunny.7 mph88%30.07 "Hg5 mi
9:50 AM54 °FPartly sunny.6 mph88%30.07 "Hg5 mi
9:20 AM54 °FPartly sunny.5 mph88%30.07 "Hg5 mi
8:50 AM54 °FPartly sunny.7 mph88%30.07 "Hg5 mi
8:20 AM54 °FPassing clouds.3 mph88%30.04 "Hg5 mi
7:50 AM54 °FPassing clouds.5 mph88%30.04 "HgN/A
7:20 AM54 °FPassing clouds.5 mph88%30.04 "HgN/A
6:50 AM54 °FPassing clouds.5 mph88%30.04 "HgN/A
5:20 AM54 °FPassing clouds.5 mph88%30.01 "HgN/A
4:50 AM54 °FPassing clouds.5 mph88%30.01 "HgN/A
4:20 AM54 °FPassing clouds.5 mph88%30.01 "HgN/A
3:50 AM54 °FPassing clouds.6 mph88%30.01 "HgN/A
3:20 AM54 °FPassing clouds.7 mph88%30.01 "HgN/A
2:50 AM54 °FPassing clouds.6 mph88%30.01 "HgN/A
2:20 AM54 °FPassing clouds.5 mph88%30.01 "HgN/A
1:50 AM54 °FPassing clouds.7 mph94%30.01 "HgN/A
1:20 AM54 °FPassing clouds.8 mph94%30.01 "HgN/A
Weather by CustomWeather, © 2015

See weather overviewHow to use our weather pages